* Astronomy
Members Login
Username
Password
Login
Remember Me
New Member
Lost Account Info?
Main Page
Search
Search
Advanced Search
Links
Blob on twitter
Chat
Chat Room
Search
Newspaper
Wiki
Help
FAQ
More?
AstroForum
NASA TV
Streaming video by Ustream
NASA TV Audio
NASA Media Channel
ISS Live webcam stream
User Details
Star Map
Calendar
Arcade
Recent Posts
Home
->
Astronomy News
->
Solar System
->
2007 UN12
Start A New Topic
Reply
Post Info
TOPIC: 2007 UN12
Blobrana
L
Posts: 131433
Date:
Nov 28 11:48 2007
RE: 2007 UN12
Permalink
Printer Friendly
__________________
Blobrana
L
Posts: 131433
Date:
Nov 28 11:34 2007
Permalink
Printer Friendly
Asteroid (?) 2007 UN12 was discovered at 08:56 UT on 21 Oct. by the Catalina Sky Survey (CSS).
Closest approach was on Oct. 17.64 2007, at a distance of 0.0004658 AU.
MPEC 2007-U84
PL Sentry has posted 2007 UN12 as an impact risk
2007 UN12
Earth Impact Table
Date
Distance
Width
Sigma
Impact
Sigma
LOV
Stretch
LOV
Impact
Probability
Impact
Energy
Palermo
Scale
Torino
Scale
YYYY-MM-DD.DD
(r
Earth
)
(r
Earth
)
(r
Earth
)
(MT)
2069-09-27.44
0.10
4.91e-04
0.000
-2.28355
8.28e+04
7.1e-07
4.55e-03
-8.29
0
2007 UN12 = 7U20A07
Orbital Elements at Epoch 2454200.5 (2007-Apr-10.0) TDB
Reference: JPL 15
(heliocentric ecliptic J2000)
Element
Value
Uncertainty (1-sigma)
Units
e
0.0104838257169035
3.1026e-05
a
0.989774075195656
2.191e-05
AU
q
0.979397456292195
5.2382e-05
AU
i
3.0558136806268
0.00045367
deg
node
27.71546757384391
0.0046878
deg
peri
94.35257516172359
0.097016
deg
M
72.46522504237723
0.10441
deg
t
p
2454128.101480909053
(2007-Jan-27.60148091)
0.10672
JED
period
359.6686114960568
0.98
0.011943
3.27e-05
d
yr
n
1.00092137176654
3.3235e-05
deg/d
Q
1.000150694099116
2.214e-05
AU
H=28.6 = ~3 to 7 meters.
Read more
__________________
Page 1 of 1
sorted by
Oldest First
Newest First
Quick Reply
Please log in to post quick replies.
Home
->
Astronomy News
->
Solar System
->
2007 UN12
Subscribe
Jump To:
--- News ---
Stars/galaxy News
Physics News
Comets
Earthquakes
Meetings
Galaxies
Weather
Stars
Missile
Satellite Re-entry
Neptune
Deimos
Venus
Saturn
Asteroids 2012
Meteors 2012
Meteorites 2012
Plutinos
Meteorites 2014
Comets 2014
Solar 2014
May
Historical Calendar
Comets 2015
October
Comets 2016
Asteroids 2018
Solar 2018
Meteors 2018
UFOs 2018
Astronomy News
Meteorite News
Mission News
Cosmology News
Events
Solar System
Earth
Exoplanets
Satellites
Supernovae
Space missions
Volcano
Uranus
Mercury
Pluto
UFOs 2012
Phobos
Meteors 2013
UFOs 2013
Comets 2013
Meteors 2014
Asteroids 2014
UFO 2014
Meteors 2015
November
December
UFOs 2015
April
July
August
Meteorites 2016
UFOs 2016
Asteroids 2016
General news
Asteroids 2017
Meteorites 2017
Comets 2017
Meteors 2017
UFOs 2017
UFOs
Asteroids
Solar
Observatories
Gamma-ray burst
Exhibition
Chemistry
Meteors
Mars
Jupiter
The Moon
Meteorites
Asteroids 2013
Meteorites 2013
Solar 2013
Sun
Solar 2015
Asteroids 2015
September
January
February
Meteorites 2015
March
June
Meteors 2016
Solar 2016
Solar 2017
Comets 2018
Meteorites 2018
--- Dropzone ---
Computers
Software
Cameras
Telescopes
Moon 2018
Observations
Moon 2017
Binoculars
Eyepiece
Moon 2016
App:roved
--- Media ---
Videos
Music
Audio Visual
YouTube
Art gallery
KMZ
Escape pod
Books
--- Coffee house ---
The Bazaar
Off Topic
All queries go here
Trash
Links
People
--- Agora ---
Blog
Forum help
Banned
Feedback
Test
Create your own FREE Forum
Report Abuse